CW4114 Weather Reports


time (UTC)temp
F
wind
direction
speed
knots
gust
knots
rain 1hr
in
rain 24hr
in
rain mn
in
humidity
%
barometer
mb
20240222095631 29 303 1.7 3.5 0.00 0.00 0.00 95 1008.2
20240222095131 29 307 1.7 3.5 0.00 0.00 0.00 95 1008.3
20240222094630 29 310 1.7 3.5 0.00 0.00 0.00 94 1008.3
20240222094355 29 284 1.7 3.5 0.00 0.00 0.00 94 1008.2
20240222093631 29 293 1.7 3.5 0.00 0.00 0.00 94 1008.3
20240222093131 29 289 1.7 3.5 0.00 0.00 0.00 94 1008.2
20240222092630 30 284 1.7 2.6 0.00 0.00 0.00 94 1008.2
20240222092132 30 300 0.9 3.5 0.00 0.00 0.00 94 1008.2
20240222091632 30 303 1.7 3.5 0.00 0.00 0.00 94 1008.3
20240222090905 30 302 1.7 3.5 0.00 0.00 0.00 94 1008.5
20240222090131 30 286 0.9 3.5 0.00 0.00 0.00 94 1008.6
20240222085854 30 310 0.9 2.6 0.00 0.00 0.00 94 1008.7
20240222085358 30 304 0.9 2.6 0.00 0.00 0.00 94 1008.8
20240222084630 30 322 0.9 2.6 0.00 0.00 0.00 94 1008.8
20240222084131 30 277 0.9 1.7 0.00 0.00 0.00 94 1008.6
20240222083631 30 293 0.9 2.6 0.00 0.00 0.00 94 1008.9
20240222083126 30 298 1.7 3.5 0.00 0.00 0.00 94 1008.9
20240222082627 30 292 0.9 3.5 0.00 0.00 0.00 94 1008.9
20240222082121 30 307 1.7 2.6 0.00 0.00 0.00 94 1008.9
20240222081610 30 300 1.7 2.6 0.00 0.00 0.00 94 1008.9
20240222081103 31 317 1.7 2.6 0.00 0.00 0.00 94 1008.8
20240222080605 31 302 1.7 2.6 0.00 0.00 0.00 94 1008.8
20240222080102 31 305 1.7 2.6 0.00 0.00 0.00 94 1008.8
20240222075547 31 291 2.6 4.3 0.00 0.00 0.00 94 1008.8
20240222075306 31 281 2.6 4.3 0.00 0.00 0.00 94 1008.8
20240222074543 31 287 2.6 4.3 0.00 0.00 0.00 94 1008.9
20240222074302 31 288 2.6 4.3 0.00 0.00 0.00 94 1008.9
20240222073536 31 299 1.7 3.5 0.00 0.00 0.00 94 1008.9
20240222073036 31 296 1.7 3.5 0.00 0.00 0.00 94 1008.9
20240222072537 31 296 2.6 3.5 0.00 0.00 0.00 94 1009.0
20240222072035 31 284 2.6 3.5 0.00 0.00 0.00 94 1009.0
20240222071536 31 290 1.7 3.5 0.00 0.00 0.00 94 1009.0
20240222071033 31 300 1.7 2.6 0.00 0.00 0.00 94 1009.0
20240222070532 31 293 1.7 3.5 0.00 0.00 0.00 94 1009.1
20240222070031 31 304 1.7 3.5 0.00 0.00 0.00 94 1009.1
20240222065532 32 310 0.9 2.6 0.00 0.00 0.00 94 1009.2
20240222065030 32 309 0.9 3.5 0.00 0.00 0.00 94 1009.1
20240222064532 32 295 1.7 3.5 0.00 0.00 0.00 94 1009.1
20240222064033 32 296 1.7 4.3 0.00 0.00 0.00 95 1009.0
20240222063531 32 298 1.7 4.3 0.00 0.00 0.00 95 1009.0
20240222063030 32 291 1.7 4.3 0.00 0.00 0.00 95 1009.0
20240222062531 32 298 2.6 4.3 0.00 0.00 0.00 95 1009.0
20240222062032 32 300 2.6 4.3 0.00 0.00 0.00 95 1009.0
20240222061758 32 324 2.6 4.3 0.00 0.00 0.00 95 1009.1
20240222061032 32 302 2.6 5.2 0.00 0.00 0.00 95 1009.1
20240222060531 31 300 2.6 5.2 0.00 0.00 0.00 95 1009.0
20240222060031 31 314 2.6 5.2 0.00 0.00 0.00 95 1009.0
20240222055531 31 300 2.6 5.2 0.00 0.00 0.00 95 1009.0
20240222055030 31 299 2.6 5.2 0.00 0.00 0.00 95 1009.0
20240222054531 31 300 2.6 5.2 0.00 0.00 0.00 95 1008.9
20240222054032 31 294 2.6 4.3 0.00 0.00 0.00 95 1008.9
20240222053531 30 303 2.6 4.3 0.00 0.00 0.00 95 1008.9
20240222053251 30 296 1.7 3.5 0.00 0.00 0.00 95 1008.9
20240222052008 29 281 1.7 3.5 0.00 0.00 0.00 94 1008.9
20240222051504 29 302 1.7 3.5 0.00 0.00 0.00 94 1008.9
20240222051002 29 298 1.7 3.5 0.00 0.00 0.00 94 1008.9
20240222050502 29 300 1.7 3.5 0.00 0.00 0.00 94 1008.9
20240222050002 29 297 1.7 3.5 0.00 0.00 0.00 94 1008.9
20240222045503 29 305 0.9 2.6 0.00 0.00 0.00 94 1009.0
20240222044956 29 281 0.0 1.7 0.00 0.00 0.00 94 1009.1
20240222044454 30 303 0.0 0.0 0.00 0.00 0.00 94 1009.0
20240222043942 30 336 0.0 1.7 0.00 0.00 0.00 94 1009.1
20240222043439 30 336 0.9 1.7 0.00 0.00 0.00 94 1009.0
20240222042939 30 310 0.0 1.7 0.00 0.00 0.00 94 1009.0
20240222042434 30 354 0.9 1.7 0.00 0.00 0.00 94 1009.0
20240222042156 31 302 0.9 1.7 0.00 0.00 0.00 94 1009.0
20240222041431 31 294 0.0 0.9 0.00 0.00 0.00 94 1009.0
20240222040930 31 341 0.0 0.9 0.00 0.00 0.00 94 1009.1
20240222040432 31 341 0.9 3.5 0.00 0.00 0.00 94 1009.2
20240222040159 31 307 1.7 3.5 0.00 0.00 0.00 94 1009.1
20240222035431 31 299 1.7 3.5 0.00 0.00 0.00 94 1009.0
20240222034932 31 299 2.6 3.5 0.00 0.00 0.00 94 1009.1
20240222034431 31 303 2.6 3.5 0.00 0.00 0.00 94 1009.2
20240222033933 31 308 2.6 3.5 0.00 0.00 0.00 94 1009.2
20240222033431 31 292 1.7 4.3 0.00 0.00 0.00 94 1009.1
20240222032932 31 277 1.7 3.5 0.00 0.00 0.00 94 1009.0
20240222032433 31 279 2.6 4.3 0.00 0.00 0.00 94 1009.0
20240222031930 30 296 3.5 4.3 0.00 0.00 0.00 94 1009.2
20240222031431 30 302 2.6 4.3 0.00 0.00 0.00 94 1009.2
20240222030925 30 300 1.7 3.5 0.00 0.00 0.00 94 1009.2
20240222030643 30 295 1.7 3.5 0.00 0.00 0.00 93 1009.2
20240222025922 30 284 1.7 3.5 0.00 0.00 0.00 93 1009.2
20240222025423 30 289 1.7 2.6 0.00 0.00 0.00 93 1009.4
20240222024916 30 276 1.7 2.6 0.00 0.00 0.00 93 1009.4
20240222024630 30 284 1.7 2.6 0.00 0.00 0.00 93 1009.4
20240222023906 30 274 1.7 2.6 0.00 0.00 0.00 93 1009.2
20240222022903 30 276 0.9 2.6 0.00 0.00 0.00 93 1009.2
20240222022402 30 268 0.9 2.6 0.00 0.00 0.00 93 1009.4
20240222021904 30 269 0.9 2.6 0.00 0.00 0.00 92 1009.5
20240222021402 30 271 0.9 2.6 0.00 0.00 0.00 92 1009.6
20240222021124 31 258 0.9 1.7 0.00 0.00 0.00 92 1009.5
20240222020402 31 260 0.9 1.7 0.00 0.00 0.00 92 1009.5
20240222015904 31 250 0.9 1.7 0.00 0.00 0.00 92 1009.4
20240222015624 31 282 0.9 1.7 0.00 0.00 0.00 92 1009.5
20240222014904 31 276 0.0 1.7 0.00 0.00 0.00 92 1009.5
20240222014402 31 274 0.0 1.7 0.00 0.00 0.00 92 1009.5
20240222013904 32 275 0.0 0.9 0.00 0.00 0.00 91 1009.6
20240222013404 32 287 0.0 1.7 0.00 0.00 0.00 91 1009.6
20240222012902 32 293 0.9 1.7 0.00 0.00 0.00 91 1009.5
20240222012403 32 293 0.9 1.7 0.00 0.00 0.00 91 1009.5
20240222012130 32 299 0.9 1.7 0.00 0.00 0.00 91 1009.6
20240222010902 33 274 0.9 1.7 0.00 0.00 0.00 90 1009.7
20240222010402 33 267 0.0 1.7 0.00 0.00 0.00 90 1009.7
20240222005902 33 241 0.9 2.6 0.00 0.00 0.00 90 1009.8
20240222005401 33 240 0.9 2.6 0.00 0.00 0.00 90 1009.8
20240222004902 33 265 0.9 1.7 0.00 0.00 0.00 89 1009.9
20240222004128 34 269 0.9 1.7 0.00 0.00 0.00 89 1010.0
20240222003402 34 269 0.9 1.7 0.00 0.00 0.00 89 1009.9
20240222002902 35 274 0.9 1.7 0.00 0.00 0.00 89 1009.9
20240222002403 35 285 0.0 1.7 0.00 0.00 0.00 88 1009.9
20240222001903 35 266 0.0 0.9 0.00 0.00 0.00 88 1010.0
20240222001404 36 250 0.0 2.6 0.00 0.00 0.00 88 1010.1
20240222000902 36 251 0.9 2.6 0.00 0.00 0.00 88 1010.0
20240222000403 36 250 0.9 2.6 0.00 0.00 0.00 87 1010.1
20240221235903 37 271 0.9 2.6 0.00 0.00 0.00 87 1010.1
20240221235402 37 272 0.9 1.7 0.00 0.00 0.00 87 1010.0
20240221234903 37 243 0.0 1.7 0.00 0.00 0.00 87 1009.9
20240221234624 38 236 0.9 1.7 0.00 0.00 0.00 87 1009.8
20240221233904 38 241 0.9 1.7 0.00 0.00 0.00 87 1009.9
20240221233402 38 239 0.9 1.7 0.00 0.00 0.00 87 1009.8
20240221232903 38 238 0.9 2.6 0.00 0.00 0.00 87 1009.7
20240221232402 38 239 0.9 2.6 0.00 0.00 0.00 86 1009.9
20240221231906 38 213 0.9 2.6 0.00 0.00 0.00 86 1009.7
20240221231626 38 216 0.0 1.7 0.00 0.00 0.00 86 1009.7
20240221230904 39 217 0.0 0.9 0.00 0.00 0.00 86 1009.7
20240221230403 39 217 0.0 0.9 0.00 0.00 0.00 86 1009.7
20240221225905 39 218 0.0 1.7 0.00 0.00 0.00 86 1009.7
20240221225403 39 219 0.9 2.6 0.00 0.00 0.00 87 1009.7
20240221224902 39 206 0.0 2.6 0.00 0.00 0.00 87 1009.8
20240221224402 39 143 0.0 0.9 0.00 0.00 0.00 87 1009.8
20240221223903 39 101 0.0 1.7 0.00 0.00 0.00 87 1009.7
20240221223402 38 101 0.0 1.7 0.00 0.00 0.00 87 1009.8
20240221222902 38 94 0.0 1.7 0.00 0.00 0.00 88 1009.7
20240221222627 38 94 0.0 1.7 0.00 0.00 0.00 88 1009.7
20240221221858 38 105 0.0 1.7 0.00 0.00 0.00 88 1009.8
20240221221614 38 87 0.0 1.7 0.00 0.00 0.00 88 1009.7
20240221220845 38 77 0.0 2.6 0.00 0.00 0.00 88 1009.6
20240221220342 38 78 0.9 2.6 0.00 0.00 0.00 88 1009.5
20240221215833 38 72 1.7 4.3 0.00 0.00 0.00 89 1009.5
20240221215333 38 104 1.7 4.3 0.00 0.00 0.00 89 1009.2
20240221214834 38 89 2.6 4.3 0.00 0.00 0.00 89 1009.2
20240221214555 38 105 2.6 4.3 0.00 0.00 0.00 88 1009.2
20240221214047 38 112 1.7 4.3 0.00 0.00 0.00 88 1009.2
20240221213321 38 117 1.7 3.5 0.00 0.00 0.00 87 1009.4
20240221212820 38 107 1.7 3.5 0.00 0.00 0.00 87 1009.4
20240221212321 38 111 1.7 3.5 0.00 0.00 0.00 86 1009.5
20240221212044 38 78 0.9 3.5 0.00 0.00 0.00 85 1009.7
20240221211320 39 87 0.9 2.6 0.00 0.00 0.00 84 1009.7
20240221210814 39 31 1.7 3.5 0.00 0.00 0.00 84 1009.8
20240221210310 39 57 1.7 3.5 0.00 0.00 0.00 83 1009.9
20240221210028 39 52 1.7 3.5 0.00 0.00 0.00 83 1010.0
20240221205301 39 63 0.9 3.5 0.00 0.00 0.00 82 1010.1
20240221204800 39 42 0.9 5.2 0.00 0.00 0.00 82 1010.1
20240221204259 39 44 1.7 5.2 0.00 0.00 0.00 81 1010.2
20240221203758 40 39 1.7 5.2 0.00 0.00 0.00 81 1010.1
20240221203257 40 37 1.7 5.2 0.00 0.00 0.00 80 1010.2
20240221203006 40 345 1.7 5.2 0.00 0.00 0.00 79 1010.2
20240221202242 40 30 1.7 5.2 0.00 0.00 0.00 79 1010.1
20240221201735 40 5 1.7 3.5 0.00 0.00 0.00 78 1010.0
20240221201234 41 342 1.7 5.2 0.00 0.00 0.00 77 1009.8
20240221200959 41 28 2.6 6.1 0.00 0.00 0.00 75 1009.9
20240221200232 42 330 2.6 6.1 0.00 0.00 0.00 74 1009.9
20240221195953 42 8 2.6 7.0 0.00 0.00 0.00 73 1009.9
20240221195230 42 4 2.6 7.0 0.00 0.00 0.00 71 1009.7
20240221194731 43 35 2.6 7.0 0.00 0.00 0.00 69 1009.7
20240221194231 44 10 2.6 7.0 0.00 0.00 0.00 64 1009.7
20240221193731 48 13 2.6 6.1 0.00 0.00 0.00 57 1009.7
20240221193232 51 4 3.5 7.8 0.00 0.00 0.00 51 1009.5
20240221192732 53 286 4.3 7.8 0.00 0.00 0.00 51 1009.2
20240221192453 53 304 4.3 11.3 0.00 0.00 0.00 51 1009.2
20240221191731 53 318 5.2 11.3 0.00 0.00 0.00 51 1009.4
20240221191230 53 292 7.0 12.2 0.00 0.00 0.00 50 1009.4
20240221190731 53 283 6.1 12.2 0.00 0.00 0.00 50 1009.5
20240221190231 53 299 6.1 12.2 0.00 0.00 0.00 49 1009.4
20240221185733 53 289 6.1 11.3 0.00 0.00 0.00 49 1009.4
20240221185226 54 274 6.1 11.3 0.00 0.00 0.00 48 1009.4
20240221184725 54 282 5.2 13.0 0.00 0.00 0.00 47 1009.5
20240221184217 55 281 5.2 13.0 0.00 0.00 0.00 47 1009.6
20240221183949 54 247 7.0 13.0 0.00 0.00 0.00 47 1009.6
20240221182712 55 270 5.2 12.2 0.00 0.00 0.00 47 1009.7
20240221182211 55 338 5.2 11.3 0.00 0.00 0.00 47 1009.7
20240221181712 55 258 4.3 11.3 0.00 0.00 0.00 47 1010.0
20240221181204 55 301 4.3 7.8 0.00 0.00 0.00 47 1010.1
20240221180707 54 260 6.1 10.4 0.00 0.00 0.00 48 1010.2
20240221180203 54 264 6.1 11.3 0.00 0.00 0.00 49 1010.4
20240221175204 53 296 6.1 11.3 0.00 0.00 0.00 49 1010.5
20240221174923 53 308 5.2 11.3 0.00 0.00 0.00 49 1010.6
20240221174159 53 321 5.2 10.4 0.00 0.00 0.00 50 1010.6
20240221173655 52 303 6.1 10.4 0.00 0.00 0.00 50 1010.6
20240221173419 52 277 6.1 11.3 0.00 0.00 0.00 50 1010.6
20240221172653 52 279 7.0 12.2 0.00 0.00 0.00 51 1010.8
20240221172152 52 238 6.1 12.2 0.00 0.00 0.00 51 1010.9
20240221171140 51 314 5.2 11.3 0.00 0.00 0.00 52 1011.1
20240221170634 51 312 5.2 11.3 0.00 0.00 0.00 52 1011.1
20240221170132 51 265 3.5 8.7 0.00 0.00 0.00 54 1011.2
20240221165634 50 288 3.5 9.6 0.00 0.00 0.00 56 1011.3
20240221165131 49 258 4.3 9.6 0.00 0.00 0.00 56 1011.3
20240221164633 49 293 4.3 9.6 0.00 0.00 0.00 56 1011.4
20240221164131 50 255 4.3 9.6 0.00 0.00 0.00 55 1011.4
20240221163634 49 224 4.3 9.6 0.00 0.00 0.00 57 1011.3
20240221163356 49 252 3.5 9.6 0.00 0.00 0.00 57 1011.4
20240221162631 49 252 3.5 7.8 0.00 0.00 0.00 59 1011.5
20240221162131 48 230 3.5 7.8 0.00 0.00 0.00 61 1011.5
20240221161624 47 259 4.3 7.8 0.00 0.00 0.00 62 1011.7
20240221161114 47 252 4.3 9.6 0.00 0.00 0.00 63 1011.7
20240221160607 47 200 5.2 9.6 0.00 0.00 0.00 62 1011.8
20240221160105 47 239 4.3 8.7 0.00 0.00 0.00 63 1011.9
20240221155833 46 231 4.3 8.7 0.00 0.00 0.00 65 1012.0
20240221155106 45 233 4.3 8.7 0.00 0.00 0.00 66 1012.0
20240221154602 44 259 3.5 7.0 0.00 0.00 0.00 68 1012.1
20240221154103 43 252 4.3 7.0 0.00 0.00 0.00 69 1012.1
20240221153602 43 294 4.3 7.0 0.00 0.00 0.00 69 1012.3
20240221153103 42 281 4.3 9.6 0.00 0.00 0.00 70 1012.2
20240221152602 42 227 4.3 9.6 0.00 0.00 0.00 71 1012.3
20240221152102 42 254 4.3 9.6 0.00 0.00 0.00 71 1012.3
20240221151602 42 246 4.3 9.6 0.00 0.00 0.00 72 1012.2
20240221151103 41 251 5.2 9.6 0.00 0.00 0.00 73 1012.3
20240221150604 41 295 5.2 9.6 0.00 0.00 0.00 73 1012.4
20240221150325 41 272 5.2 9.6 0.00 0.00 0.00 74 1012.4
20240221145604 40 240 5.2 9.6 0.00 0.00 0.00 74 1012.5
20240221145100 40 307 4.3 9.6 0.00 0.00 0.00 74 1012.6
20240221144602 40 255 5.2 9.6 0.00 0.00 0.00 75 1012.6
20240221144101 40 291 5.2 10.4 0.00 0.00 0.00 75 1012.7
20240221143558 40 293 5.2 10.4 0.00 0.00 0.00 75 1012.8
20240221143307 40 241 5.2 9.6 0.00 0.00 0.00 75 1012.7
20240221142809 40 239 5.2 9.6 0.00 0.00 0.00 75 1012.8
20240221142038 40 269 4.3 10.4 0.00 0.00 0.00 75 1012.8
20240221141759 39 302 4.3 10.4 0.00 0.00 0.00 76 1012.8
20240221141031 39 265 3.5 7.8 0.00 0.00 0.00 77 1012.8
20240221140531 38 268 4.3 7.8 0.00 0.00 0.00 77 1012.9
20240221140031 38 272 4.3 9.6 0.00 0.00 0.00 77 1012.9
20240221135516 38 252 4.3 9.6 0.00 0.00 0.00 77 1012.9
20240221135015 38 236 5.2 9.6 0.00 0.00 0.00 77 1013.0
20240221134514 38 264 5.2 9.6 0.00 0.00 0.00 78 1013.0
20240221134014 38 255 5.2 9.6 0.00 0.00 0.00 78 1013.0
20240221133504 38 246 6.1 8.7 0.00 0.00 0.00 78 1012.9
20240221133002 37 255 6.1 10.4 0.00 0.00 0.00 78 1013.0
20240221132502 37 240 6.1 10.4 0.00 0.00 0.00 78 1013.0
20240221132230 37 241 6.1 10.4 0.00 0.00 0.00 79 1013.1
20240221131724 37 249 6.1 12.2 0.00 0.00 0.00 79 1013.1
20240221131002 37 277 6.1 12.2 0.00 0.00 0.00 79 1013.0
20240221130502 37 220 6.1 13.0 0.00 0.00 0.00 79 1013.1
20240221130003 37 253 7.0 13.0 0.00 0.00 0.00 79 1013.0
20240221125726 36 235 6.1 11.3 0.00 0.00 0.00 79 1013.0
20240221125002 36 258 5.2 10.4 0.00 0.00 0.00 79 1013.1
20240221124502 36 278 6.1 10.4 0.00 0.00 0.00 79 1013.1
20240221124002 36 237 6.1 9.6 0.00 0.00 0.00 79 1013.1
20240221123502 36 262 6.1 10.4 0.00 0.00 0.00 79 1013.1
20240221123003 36 277 6.1 10.4 0.00 0.00 0.00 79 1013.1
20240221122503 36 258 6.1 9.6 0.00 0.00 0.00 79 1013.1
20240221122226 36 235 6.1 9.6 0.00 0.00 0.00 79 1013.2
20240221121502 36 264 6.1 13.0 0.00 0.00 0.00 78 1013.2
20240221121002 36 246 6.1 13.0 0.00 0.00 0.00 78 1013.1
20240221120503 36 239 7.0 13.0 0.00 0.00 0.00 78 1013.3
20240221120224 36 238 7.0 13.0 0.00 0.00 0.00 78 1013.3
20240221115502 36 236 7.0 13.0 0.00 0.00 0.00 78 1013.3
20240221115003 36 281 6.1 13.0 0.00 0.00 0.00 78 1013.4
20240221114500 36 222 6.1 12.2 0.00 0.00 0.00 78 1013.3
20240221114219 36 246 6.1 12.2 0.00 0.00 0.00 78 1013.4
20240221113457 36 254 6.1 12.2 0.00 0.00 0.00 78 1013.4
20240221113212 36 241 6.1 12.2 0.00 0.00 0.00 77 1013.4
20240221112448 36 268 6.1 11.3 0.00 0.00 0.00 77 1013.5
20240221111944 36 233 7.0 11.3 0.00 0.00 0.00 77 1013.5
20240221111443 36 222 7.0 11.3 0.00 0.00 0.00 77 1013.5
20240221110936 36 261 6.1 13.0 0.00 0.00 0.00 77 1013.5
20240221110434 36 265 6.1 13.9 0.00 0.00 0.00 77 1013.5
20240221105932 36 273 6.1 13.9 0.00 0.00 0.00 77 1013.6
20240221105658 36 266 5.2 11.3 0.00 0.00 0.00 77 1013.6
20240221104931 36 255 6.1 10.4 0.00 0.00 0.00 77 1013.6
20240221104651 37 222 6.1 13.9 0.00 0.00 0.00 77 1013.6
20240221103933 37 237 6.1 13.9 0.00 0.00 0.00 76 1013.7
20240221103432 37 239 6.1 11.3 0.00 0.00 0.00 76 1013.8
20240221102932 37 248 5.2 11.3 0.00 0.00 0.00 76 1013.8
20240221102432 37 220 6.1 11.3 0.00 0.00 0.00 76 1013.9
20240221101931 37 241 6.1 11.3 0.00 0.00 0.00 76 1013.9
20240221101431 37 227 6.1 11.3 0.00 0.00 0.00 75 1013.9
20240221100927 38 265 5.2 13.0 0.00 0.00 0.00 76 1013.9
20240221100641 38 255 6.1 13.0 0.00 0.00 0.00 75 1013.9